IZ1REU Weather Reports


time (UTC)temp
C
wind
direction
speed
KPH
gust
KPH
rain 1hr
cm
rain 24hr
cm
rain mn
cm
humidity
%
barometer
mb
20260506215530 17 115 0.0 12.9 0.00 1.78 0.00 77 1010.4
20260506215033 17 157 3.2 17.7 0.00 1.78 0.00 78 1010.3
20260506214530 17 179 3.2 16.1 0.00 1.78 0.00 78 1010.3
20260506214039 17 208 3.2 9.7 0.00 1.78 0.00 78 1010.3
20260506213533 17 103 1.6 17.7 0.00 1.78 0.00 78 1010.4
20260506213039 17 141 3.2 8.0 0.00 1.78 0.00 78 1010.5
20260506212530 17 123 1.6 8.0 0.00 1.78 0.00 79 1010.5
20260506212033 17 128 1.6 8.0 0.00 1.78 0.00 78 1010.3
20260506211530 17 112 6.4 12.9 0.00 1.78 0.00 78 1010.3
20260506211030 17 139 14.5 14.5 0.00 1.78 0.00 78 1010.3
20260506210530 17 171 0.0 9.7 0.00 1.78 0.00 78 1010.3
20260506210030 17 222 0.0 14.5 0.00 1.78 0.00 78 1010.3
20260506205530 17 148 3.2 9.7 0.00 1.78 0.00 78 1010.3
20260506205033 17 133 4.8 11.3 0.00 1.78 0.00 78 1010.3
20260506204533 17 157 3.2 16.1 0.00 1.78 0.00 78 1010.3
20260506204033 17 103 12.9 12.9 0.00 1.78 0.00 78 1010.2
20260506203536 17 88 0.0 16.1 0.00 1.78 0.00 78 1010.1
20260506203033 17 135 1.6 14.5 0.00 1.78 0.00 78 1010.1
20260506202533 17 96 6.4 14.5 0.00 1.78 0.00 78 1010.1
20260506202030 17 146 1.6 11.3 0.00 1.78 0.00 78 1010.1
20260506201530 17 161 3.2 8.0 0.00 1.78 0.00 78 1010.1
20260506201033 17 127 1.6 6.4 0.00 1.78 0.00 78 1010.1
20260506200530 17 138 3.2 11.3 0.00 1.78 0.00 78 1010.0
20260506200036 17 146 0.0 12.9 0.00 1.78 0.00 78 1009.9
20260506195533 17 118 9.7 9.7 0.00 1.78 0.00 78 1009.9
20260506195030 17 132 0.0 8.0 0.00 1.78 0.00 77 1009.7
20260506194530 17 247 0.0 14.5 0.00 1.78 0.00 77 1009.6
20260506194033 17 234 4.8 6.4 0.00 1.78 0.00 78 1009.6
20260506193530 17 142 1.6 16.1 0.00 1.78 0.00 78 1009.6
20260506193036 17 123 12.9 12.9 0.00 1.78 0.00 78 1009.6
20260506192530 17 135 1.6 16.1 0.00 1.78 0.00 78 1009.5
20260506192036 17 123 0.0 4.8 0.00 1.78 0.00 78 1009.5
20260506191530 17 124 1.6 4.8 0.00 1.78 0.00 79 1009.4
20260506191039 17 132 1.6 14.5 0.00 1.78 0.00 79 1009.3
20260506190530 17 138 0.0 8.0 0.00 1.78 0.00 79 1009.3
20260506190039 17 175 4.8 12.9 0.00 1.78 0.00 79 1009.2
20260506185539 17 123 0.0 8.0 0.00 1.78 0.00 80 1009.2
20260506185030 17 129 1.6 12.9 0.00 1.78 0.00 80 1009.1
20260506184536 17 172 1.6 11.3 0.00 1.78 0.00 80 1009.0
20260506184033 17 139 8.0 12.9 0.00 1.78 0.00 80 1009.0
20260506183530 17 117 0.0 14.5 0.00 1.78 0.00 80 1008.9
20260506183033 17 103 11.3 12.9 0.00 1.78 0.00 80 1008.9
20260506182533 17 92 0.0 17.7 0.00 1.78 0.00 80 1008.8
20260506182033 17 132 1.6 14.5 0.00 1.78 0.00 81 1008.8
20260506181530 17 112 1.6 11.3 0.00 1.78 0.00 81 1008.6
20260506181036 17 117 4.8 14.5 0.00 1.78 0.00 81 1008.5
20260506180536 17 123 8.0 19.3 0.00 1.78 0.00 81 1008.4
20260506180033 17 154 3.2 16.1 0.00 1.78 0.00 81 1008.4
20260506175530 17 221 1.6 9.7 0.00 1.78 0.00 81 1008.3
20260506175033 17 158 4.8 14.5 0.00 1.78 0.00 81 1008.3
20260506174533 17 136 4.8 12.9 0.00 1.78 0.00 81 1008.4
20260506174030 17 217 3.2 16.1 0.00 1.78 0.00 81 1008.3
20260506173530 17 167 1.6 11.3 0.00 1.78 0.00 80 1008.3
20260506173036 17 209 8.0 17.7 0.00 1.78 0.00 80 1008.3
20260506172533 17 81 14.5 22.5 0.00 1.78 0.00 79 1008.3
20260506172030 17 139 3.2 16.1 0.00 1.78 0.00 79 1008.3
20260506171533 17 138 3.2 14.5 0.00 1.78 0.00 78 1008.3
20260506171033 17 130 4.8 12.9 0.00 1.78 0.00 78 1008.2
20260506170530 18 288 0.0 19.3 0.00 1.78 0.00 77 1008.3
20260506170030 18 107 9.7 16.1 0.00 1.78 0.00 77 1008.2
20260506165530 18 148 3.2 16.1 0.00 1.78 0.00 76 1008.1
20260506165033 18 165 6.4 17.7 0.00 1.78 0.00 76 1008.2
20260506164530 18 241 9.7 16.1 0.00 1.78 0.00 74 1008.2
20260506164036 19 133 8.0 17.7 0.00 1.78 0.00 75 1008.3
20260506163530 18 211 3.2 19.3 0.00 1.78 0.00 74 1008.3
20260506163039 19 121 3.2 12.9 0.00 1.78 0.00 76 1008.2
20260506162530 18 232 1.6 16.1 0.00 1.78 0.00 75 1008.2
20260506162033 18 155 9.7 14.5 0.00 1.78 0.00 75 1008.2
20260506161530 18 139 3.2 14.5 0.00 1.78 0.00 75 1008.2
20260506161033 19 138 0.0 8.0 0.00 1.78 0.00 75 1008.2
20260506160530 18 272 12.9 16.1 0.00 1.78 0.00 75 1008.2
20260506160030 18 30 1.6 16.1 0.00 1.78 0.00 76 1008.2
20260506155530 18 140 6.4 16.1 0.00 1.78 0.00 76 1008.1
20260506155030 18 211 1.6 17.7 0.00 1.78 0.00 77 1008.1
20260506154533 18 140 12.9 19.3 0.00 1.78 0.00 77 1008.1
20260506154030 19 105 4.8 12.9 0.00 1.78 0.00 77 1008.1
20260506153536 19 154 12.9 19.3 0.00 1.78 0.00 75 1008.1
20260506153030 20 123 4.8 14.5 0.00 1.78 0.00 75 1008.0
20260506152530 20 123 3.2 11.3 0.00 1.78 0.00 75 1007.9
20260506152030 19 265 4.8 22.5 0.00 1.78 0.00 76 1008.0
20260506151533 20 138 11.3 20.9 0.00 1.78 0.00 76 1008.0
20260506151030 20 138 14.5 17.7 0.00 1.78 0.00 76 1008.0
20260506150536 20 284 3.2 19.3 0.00 1.78 0.00 76 1008.0
20260506150033 20 123 4.8 19.3 0.00 1.78 0.00 76 1008.0
20260506145539 20 146 4.8 11.3 0.00 1.78 0.00 76 1008.0
20260506145033 19 323 0.0 14.5 0.00 1.78 0.00 77 1008.0
20260506144539 19 136 8.0 17.7 0.00 1.78 0.00 76 1008.0
20260506144030 19 154 4.8 12.9 0.00 1.78 0.00 76 1008.0
20260506143530 19 275 4.8 14.5 0.00 1.78 0.00 77 1008.0
20260506143030 18 199 1.6 17.7 0.00 1.78 0.00 79 1008.0
20260506142530 18 153 3.2 12.9 0.00 1.78 0.00 78 1008.0
20260506142030 19 159 1.6 12.9 0.00 1.78 0.00 76 1008.0
20260506141530 19 124 4.8 17.7 0.00 1.78 0.00 76 1008.0
20260506141030 19 148 8.0 19.3 0.00 1.78 0.00 75 1008.0
20260506140533 20 150 12.9 16.1 0.00 1.78 0.00 73 1008.1
20260506140033 20 145 9.7 14.5 0.00 1.78 0.00 71 1008.1
20260506135530 20 180 3.2 14.5 0.00 1.78 0.00 72 1008.0
20260506135039 20 142 3.2 16.1 0.00 1.78 0.00 72 1008.2
20260506134536 20 131 8.0 11.3 0.00 1.78 0.00 71 1008.1
20260506134033 20 202 1.6 14.5 0.00 1.78 0.00 69 1008.2
20260506133536 20 138 4.8 17.7 0.00 1.78 0.00 69 1008.2
20260506133030 20 165 8.0 14.5 0.00 1.78 0.00 71 1008.3
20260506132533 20 136 8.0 17.7 0.00 1.78 0.00 70 1008.3
20260506132033 20 212 1.6 16.1 0.00 1.78 0.00 71 1008.3
20260506131530 20 152 3.2 17.7 0.00 1.78 0.00 71 1008.3
20260506131030 20 164 9.7 22.5 0.00 1.78 0.00 73 1008.3
20260506130530 20 179 4.8 16.1 0.00 1.78 0.00 73 1008.2
20260506130030 20 207 6.4 17.7 0.00 1.78 0.00 73 1008.2
20260506125530 20 150 4.8 16.1 0.00 1.78 0.00 73 1008.3
20260506125033 20 130 4.8 16.1 0.00 1.78 0.00 74 1008.3
20260506124530 20 142 4.8 14.5 0.00 1.78 0.00 73 1008.3
20260506124030 20 184 3.2 12.9 0.00 1.78 0.00 73 1008.2
20260506123530 20 169 0.0 11.3 0.00 1.78 0.00 74 1008.1
20260506123030 20 126 3.2 14.5 0.00 1.78 0.00 75 1008.0
20260506122536 20 139 3.2 12.9 0.00 1.78 0.00 77 1008.0
20260506122039 20 167 9.7 17.7 0.00 1.78 0.00 78 1008.0
20260506121530 20 157 11.3 16.1 0.00 1.78 0.00 78 1008.0
20260506121030 20 166 8.0 16.1 0.00 1.78 0.00 81 1007.9
20260506120539 19 167 8.0 14.5 0.00 1.78 0.00 81 1007.9
20260506120033 18 161 1.6 16.1 0.00 1.78 0.00 81 1007.9
20260506115533 18 185 3.2 16.1 0.00 1.78 0.00 81 1007.9
20260506115036 18 168 11.3 17.7 0.00 1.78 0.00 80 1007.9
20260506114536 19 150 9.7 22.5 0.00 1.78 0.00 80 1007.9
20260506114030 19 178 8.0 17.7 0.00 1.78 0.00 79 1007.9
20260506113530 19 182 6.4 14.5 0.00 1.78 0.00 80 1007.9
20260506113030 19 246 4.8 19.3 0.00 1.78 0.00 78 1007.9
20260506112530 20 162 9.7 19.3 0.00 1.78 0.00 79 1007.8
20260506112039 19 159 12.9 12.9 0.00 1.78 0.00 80 1007.8
20260506111530 19 161 8.0 17.7 0.00 1.78 0.00 80 1007.8
20260506111039 19 154 11.3 16.1 0.00 1.78 0.00 79 1007.8
20260506110536 19 242 3.2 12.9 0.00 1.78 0.00 79 1007.8
20260506110030 19 108 3.2 16.1 0.00 1.78 0.00 78 1007.8
20260506105530 19 190 11.3 17.7 0.00 1.78 0.00 79 1007.9
20260506105033 19 244 4.8 17.7 0.00 1.78 0.00 79 1007.8
20260506104533 19 170 6.4 16.1 0.00 1.78 0.00 80 1007.9
20260506104033 19 181 1.6 19.3 0.00 1.78 0.00 79 1007.9
20260506103533 19 181 8.0 16.1 0.00 1.78 0.00 79 1007.9
20260506103030 19 148 8.0 17.7 0.00 1.78 0.00 78 1007.8
20260506102530 20 196 6.4 11.3 0.00 1.78 0.00 79 1007.8
20260506102030 20 130 1.6 16.1 0.00 1.78 0.00 79 1007.8
20260506101530 20 103 4.8 12.9 0.00 1.78 0.00 78 1007.7
20260506101030 19 117 4.8 14.5 0.00 1.78 0.00 79 1007.6
20260506100536 19 155 4.8 14.5 0.00 1.78 0.00 80 1007.7
20260506100030 19 134 6.4 14.5 0.00 1.78 0.00 81 1007.7
20260506095536 18 157 4.8 14.5 0.00 1.78 0.00 80 1007.8
20260506095030 18 135 1.6 14.5 0.00 1.78 0.00 81 1007.8
20260506094530 18 173 3.2 9.7 0.00 1.78 0.00 81 1007.7
20260506094036 18 140 3.2 12.9 0.00 1.78 0.00 80 1007.7
20260506093533 18 167 8.0 16.1 0.00 1.78 0.00 81 1007.8
20260506093030 18 160 0.0 16.1 0.00 1.78 0.00 82 1007.7
20260506092539 18 161 3.2 12.9 0.00 1.78 0.00 84 1007.6
20260506092036 17 183 6.4 11.3 0.00 1.78 0.00 84 1007.6
20260506091533 17 138 3.2 9.7 0.00 1.78 0.00 85 1007.6
20260506091036 17 160 8.0 11.3 0.00 1.78 0.00 85 1007.6
20260506090530 17 161 6.4 8.0 0.00 1.78 0.00 85 1007.5
20260506090030 17 115 3.2 12.9 0.00 1.78 0.00 86 1007.4
20260506085530 17 172 8.0 11.3 0.00 1.78 0.00 87 1007.4
20260506085033 17 74 1.6 19.3 0.00 1.78 0.00 87 1007.3
20260506084530 17 233 6.4 11.3 0.00 1.78 0.00 88 1007.2
20260506084030 17 192 1.6 12.9 0.00 1.78 0.00 88 1007.1
20260506083536 17 242 0.0 9.7 0.00 1.78 0.00 89 1007.1
20260506083033 17 187 3.2 11.3 0.00 1.78 0.00 89 1007.1
20260506082536 17 190 4.8 17.7 0.00 1.78 0.00 90 1007.0
20260506082030 17 117 4.8 12.9 0.00 1.78 0.00 90 1007.0
20260506081533 17 109 4.8 16.1 0.00 1.78 0.00 90 1007.0
20260506081033 17 134 3.2 17.7 0.00 1.78 0.00 91 1006.9
20260506080530 17 159 9.7 16.1 0.00 1.78 0.00 91 1006.9
20260506073036 17 149 6.4 22.5 0.08 1.78 0.00 91 1006.8
20260506072529 17 169 8.0 19.3 0.08 1.78 0.00 91 1006.7
20260506072030 17 233 3.2 14.5 0.08 1.78 0.00 91 1006.6
20260506071530 17 106 3.2 16.1 0.08 1.78 0.00 91 1006.6
20260506071036 17 162 8.0 17.7 0.08 1.78 0.00 91 1006.5
20260506070530 17 140 8.0 19.3 0.08 1.78 0.00 91 1006.5
20260506062030 16 153 6.4 20.9 0.00 1.70 0.00 90 1006.0
20260506061530 16 75 3.2 17.7 0.00 1.75 0.00 89 1006.1
20260506061033 16 103 9.7 20.9 0.00 1.78 0.00 89 1006.1
20260506060533 16 120 4.8 20.9 0.00 1.80 0.00 89 1006.2
20260506051030 14 39 0.0 4.8 0.03 2.46 0.00 92 1006.5
20260506050530 13 5 0.0 3.2 0.05 2.49 0.00 92 1006.4
20260506045030 13 295 0.0 1.6 0.08 2.54 0.00 92 1006.3
20260506044530 14 266 1.6 4.8 0.10 2.57 0.00 92 1006.3
20260506044032 14 334 3.2 6.4 0.10 2.62 0.00 92 1006.3
20260506043533 13 321 1.6 4.8 0.10 2.67 0.00 92 1006.5
20260506043030 13 10 1.6 3.2 0.10 2.79 0.00 92 1006.6
20260506042533 14 315 1.6 4.8 0.10 2.90 0.00 92 1006.7
20260506042030 14 27 4.8 4.8 0.10 3.00 0.00 91 1006.8
20260506041532 14 80 1.6 6.4 0.10 3.10 0.00 91 1006.8
20260506041035 14 328 1.6 4.8 0.08 3.17 0.00 91 1007.1
20260506040532 14 310 0.0 4.8 0.05 3.23 0.00 90 1007.4
20260506040036 14 269 1.6 1.6 0.03 3.28 0.00 90 1007.3
20260506035532 14 29 0.0 1.6 0.00 3.43 0.00 89 1007.2
20260506035029 14 128 0.0 0.0 0.00 3.48 0.00 88 1007.2
20260506034533 14 128 0.0 0.0 0.00 3.48 0.00 87 1007.2
20260506034029 14 128 0.0 3.2 0.00 3.58 0.00 87 1007.1
20260506033530 14 175 1.6 1.6 0.03 3.66 0.00 86 1006.9
20260506033030 14 117 0.0 3.2 0.03 3.68 0.00 85 1006.8
20260506032538 14 78 0.0 3.2 0.03 3.71 0.00 85 1006.8
20260506032032 14 30 0.0 16.1 0.03 3.76 0.00 85 1006.7
20260506031533 14 51 6.4 14.5 0.05 3.84 0.00 86 1006.7
20260506031029 14 95 9.7 17.7 0.08 3.91 0.00 87 1006.8
20260506030529 14 67 9.7 16.1 0.08 3.94 0.00 87 1006.9
20260506030029 13 24 6.4 14.5 0.46 3.94 0.00 88 1007.1
20260506025530 13 49 3.2 16.1 0.48 3.96 0.00 88 1007.3
20260506025030 13 76 3.2 16.1 0.56 3.99 0.00 89 1007.4
20260506024535 13 29 3.2 17.7 0.64 3.99 0.00 89 1007.5
20260506024029 13 42 6.4 14.5 0.69 3.99 0.00 89 1007.7
20260506023532 13 78 12.9 12.9 0.74 3.99 0.00 90 1007.8
20260506023029 13 71 9.7 9.7 0.86 4.01 0.00 91 1008.0
20260506022530 13 347 6.4 9.7 0.99 4.04 0.00 90 1008.1
20260506022033 13 51 4.8 12.9 1.09 4.09 0.00 90 1008.2
20260506021530 13 324 1.6 6.4 1.12 4.09 0.00 90 1008.2
20260506021033 13 134 0.0 17.7 1.30 4.09 0.00 90 1008.2
20260506020535 13 9 12.9 12.9 1.35 4.11 0.00 91 1008.3
20260506020030 13 5 4.8 9.7 0.99 3.76 0.00 89 1008.2
20260506015529 13 344 4.8 12.9 0.94 3.71 0.00 89 1008.3
20260506015029 14 309 1.6 16.1 0.91 3.66 0.00 88 1008.6
20260506014530 14 319 8.0 12.9 0.84 3.56 0.00 88 1008.8
20260506014032 15 14 3.2 11.3 0.76 3.53 0.00 88 1008.8
20260506013532 15 333 1.6 11.3 0.71 3.48 0.00 89 1008.9
20260506013032 16 327 8.0 8.0 0.56 3.35 0.00 89 1009.1
20260506012529 16 246 3.2 11.3 0.46 3.23 0.00 89 1009.2
20260506012029 16 259 4.8 9.7 0.36 3.15 0.00 88 1008.9
20260506011532 16 242 6.4 6.4 0.30 3.10 0.00 88 1008.9
20260506011029 16 248 3.2 11.3 0.13 2.92 0.00 88 1008.7
20260506010529 16 246 4.8 6.4 0.08 2.87 0.00 88 1008.5
20260506010029 16 261 3.2 4.8 0.08 2.87 0.00 88 1008.5
20260506005536 16 119 1.6 3.2 0.08 2.90 0.00 88 1008.5
20260506005029 16 115 0.0 3.2 0.05 2.90 0.00 88 1008.5
20260506004529 16 117 1.6 8.0 0.03 2.90 0.00 88 1008.7
20260506004029 16 119 1.6 8.0 0.03 2.90 0.00 87 1008.8
20260506003538 16 58 1.6 11.3 0.03 2.90 0.00 88 1008.9
20260506003029 16 162 0.0 20.9 0.03 2.90 0.00 88 1008.8
20260506002529 16 140 8.0 17.7 0.03 2.90 0.00 88 1008.7
20260506002035 16 319 0.0 1.6 0.03 2.90 0.00 87 1008.5
20260506001532 16 319 0.0 0.0 0.00 2.87 0.00 87 1008.4
20260506001032 16 319 0.0 0.0 0.00 2.87 0.00 87 1008.6
20260506000535 16 319 0.0 6.4 0.00 2.84 0.00 87 1008.6
20260506000032 16 316 4.8 4.8 0.00 2.84 0.00 87 1008.7
20260505235535 16 301 4.8 4.8 0.00 2.84 0.00 87 1008.9
20260505235033 17 306 0.0 4.8 0.00 2.84 0.00 87 1008.8
20260505234530 17 306 4.8 6.4 0.00 2.84 0.00 88 1009.0
20260505234032 17 128 0.0 3.2 0.00 2.84 0.00 88 1009.3
20260505233529 17 127 0.0 3.2 0.00 2.84 0.00 87 1009.4
20260505233029 17 112 0.0 4.8 0.00 2.84 0.00 87 1009.4
20260505232532 17 117 1.6 8.0 0.00 2.84 0.00 87 1009.5
20260505232029 17 98 0.0 3.2 0.00 2.84 0.00 87 1009.7
20260505231532 17 98 0.0 3.2 0.00 2.84 0.00 86 1009.7
20260505231029 17 170 1.6 3.2 0.00 2.84 0.00 86 1009.8
20260505230530 17 184 0.0 3.2 0.00 2.84 0.00 86 1009.8
20260505230029 17 184 0.0 3.2 0.00 2.84 0.00 86 1009.9
20260505225529 17 183 0.0 4.8 0.00 2.84 0.00 86 1009.9
20260505225029 17 183 0.0 3.2 0.00 2.84 0.00 86 1009.8
20260505224535 17 182 3.2 3.2 0.00 2.84 0.00 86 1009.9
20260505224038 17 186 0.0 6.4 0.00 2.84 0.00 86 1010.0
20260505223533 17 148 3.2 8.0 0.00 2.84 0.00 86 1010.1
20260505223029 17 213 3.2 12.9 0.00 2.84 0.00 86 1010.2
20260505222533 17 169 1.6 6.4 0.00 2.84 0.00 86 1010.2
20260505222029 17 142 3.2 19.3 0.00 2.84 0.00 86 1010.3
20260505221529 17 63 9.7 19.3 0.00 2.84 0.00 86 1010.3
20260505221032 17 117 4.8 6.4 0.00 2.84 0.00 86 1010.2
20260505220532 17 157 1.6 3.2 0.00 2.84 0.00 86 1010.2
20260505220029 17 123 3.2 9.7 0.00 2.84 0.00 86 1010.2